TimePDT,TemperatureF,Dew PointF,Humidity,Sea Level PressureIn,VisibilityMPH,Wind Direction,Wind SpeedMPH,Gust SpeedMPH,PrecipitationIn,Events,Conditions,WindDirDegrees,DateUTC
12:46 AM,53.6,50.0,88,29.97,10.0,WNW,3.5,-,N/A,,Mostly Cloudy,300,2013-08-12 07:46:00
12:54 AM,55.0,52.0,89,29.94,10.0,Calm,Calm,-,N/A,,Mostly Cloudy,0,2013-08-12 07:54:00
1:54 AM,55.0,52.0,89,29.94,10.0,WNW,5.8,-,N/A,,Overcast,300,2013-08-12 08:54:00
2:54 AM,54.0,52.0,93,29.93,10.0,NW,4.6,-,N/A,,Overcast,310,2013-08-12 09:54:00
3:54 AM,55.0,52.0,89,29.92,10.0,West,9.2,-,N/A,,Overcast,280,2013-08-12 10:54:00
4:54 AM,55.0,53.1,93,29.93,10.0,WNW,4.6,-,N/A,,Overcast,290,2013-08-12 11:54:00
5:54 AM,55.0,52.0,89,29.94,10.0,West,5.8,-,N/A,,Overcast,280,2013-08-12 12:54:00
6:54 AM,55.0,52.0,89,29.95,10.0,NW,4.6,-,N/A,,Overcast,320,2013-08-12 13:54:00
7:54 AM,55.9,53.1,90,29.96,10.0,NNW,4.6,-,N/A,,Overcast,340,2013-08-12 14:54:00
8:54 AM,57.0,53.1,87,29.97,10.0,WNW,4.6,-,N/A,,Overcast,300,2013-08-12 15:54:00
9:54 AM,57.9,53.1,84,29.98,10.0,WSW,4.6,-,N/A,,Overcast,240,2013-08-12 16:54:00
10:54 AM,61.0,54.0,78,29.99,10.0,Variable,4.6,-,N/A,,Overcast,0,2013-08-12 17:54:00
11:15 AM,62.6,53.6,72,30.01,10.0,Variable,4.6,-,N/A,,Overcast,0,2013-08-12 18:15:00
11:54 AM,64.0,55.0,73,29.98,10.0,Variable,4.6,-,N/A,,Scattered Clouds,0,2013-08-12 18:54:00
12:01 PM,64.4,55.4,73,30.00,10.0,South,6.9,-,N/A,,Mostly Cloudy,190,2013-08-12 19:01:00
12:11 PM,66.2,55.4,68,30.00,10.0,SSW,8.1,-,N/A,,Scattered Clouds,200,2013-08-12 19:11:00
12:54 PM,68.0,55.9,65,29.96,10.0,South,8.1,-,N/A,,Clear,190,2013-08-12 19:54:00
1:54 PM,73.0,55.9,55,29.95,10.0,SSW,6.9,-,N/A,,Clear,200,2013-08-12 20:54:00
2:54 PM,73.9,55.9,53,29.93,10.0,SSW,10.4,-,N/A,,Clear,200,2013-08-12 21:54:00
3:54 PM,73.9,57.0,55,29.92,10.0,SSW,15.0,-,N/A,,Clear,200,2013-08-12 22:54:00
4:54 PM,73.0,55.9,55,29.91,10.0,SSW,11.5,-,N/A,,Clear,200,2013-08-12 23:54:00
5:54 PM,72.0,57.0,59,29.91,10.0,SSW,12.7,-,N/A,,Clear,200,2013-08-13 00:54:00
6:54 PM,69.1,55.9,63,29.91,10.0,South,9.2,-,N/A,,Clear,190,2013-08-13 01:54:00
7:54 PM,64.9,55.9,73,29.92,10.0,SSW,9.2,-,N/A,,Clear,200,2013-08-13 02:54:00
8:54 PM,61.0,51.1,70,29.93,10.0,SSW,11.5,-,N/A,,Clear,210,2013-08-13 03:54:00
10:54 PM,57.0,52.0,83,29.94,10.0,SSW,6.9,-,N/A,,Clear,210,2013-08-13 05:54:00
11:54 PM,54.0,48.9,83,29.95,10.0,Calm,Calm,-,N/A,,Clear,0,2013-08-13 06:54:00